Time,TemperatureF,DewpointF,PressureIn,WindDirection,WindDirectionDegrees,WindSpeedMPH,WindSpeedGustMPH,Humidity,HourlyPrecipIn,Conditions,Clouds,dailyrainin,SoftwareType,DateUTC
2013-01-27 00:01:00,31.0,30.0,29.83,North,-999,-999.0,-999.0,95,0.00,,,0.11,,2013-01-27 08:01:00,
2013-01-27 00:11:00,31.0,30.0,29.83,North,-999,-999.0,-999.0,95,0.00,,,0.11,,2013-01-27 08:11:00,
2013-01-27 00:21:00,31.0,30.0,29.83,North,-999,-999.0,-999.0,95,0.00,,,0.10,,2013-01-27 08:21:00,
2013-01-27 00:31:00,31.0,30.0,29.82,North,-999,-999.0,-999.0,95,0.00,,,0.10,,2013-01-27 08:31:00,
2013-01-27 00:41:00,31.0,30.0,29.82,North,-999,-999.0,-999.0,95,0.00,,,0.10,,2013-01-27 08:41:00,
2013-01-27 00:52:00,31.0,30.0,29.81,North,-999,-999.0,-999.0,95,0.00,,,0.10,,2013-01-27 08:52:00,
2013-01-27 01:02:00,31.0,30.0,29.81,North,-999,-999.0,-999.0,95,0.00,,,0.10,,2013-01-27 09:02:00,
2013-01-27 01:11:00,31.0,30.0,29.81,North,-999,-999.0,-999.0,95,0.00,,,0.10,,2013-01-27 09:11:00,
2013-01-27 01:21:00,31.0,30.0,29.82,North,-999,-999.0,-999.0,95,0.00,,,0.09,,2013-01-27 09:21:00,
2013-01-27 01:31:00,31.0,30.0,29.82,North,-999,-999.0,-999.0,95,0.00,,,0.09,,2013-01-27 09:31:00,
2013-01-27 01:41:00,31.0,30.0,29.82,North,-999,-999.0,-999.0,95,0.00,,,0.09,,2013-01-27 09:41:00,
2013-01-27 01:52:00,31.0,30.0,29.83,North,-999,-999.0,-999.0,95,0.00,,,0.09,,2013-01-27 09:52:00,
2013-01-27 02:01:00,31.0,30.0,29.83,North,-999,-999.0,-999.0,95,0.00,,,0.09,,2013-01-27 10:01:00,
2013-01-27 02:11:00,31.0,30.0,29.83,North,-999,-999.0,-999.0,95,0.00,,,0.09,,2013-01-27 10:11:00,
2013-01-27 02:21:00,31.0,30.0,29.83,North,-999,-999.0,-999.0,95,0.00,,,0.09,,2013-01-27 10:21:00,
2013-01-27 02:31:00,31.0,30.0,29.82,North,-999,-999.0,-999.0,95,0.00,,,0.07,,2013-01-27 10:31:00,
2013-01-27 02:41:00,31.0,30.0,29.82,North,-999,-999.0,-999.0,95,0.00,,,0.07,,2013-01-27 10:41:00,
2013-01-27 02:51:00,31.0,30.0,29.82,North,-999,-999.0,-999.0,95,0.00,,,0.07,,2013-01-27 10:51:00,
2013-01-27 03:01:00,31.0,30.0,29.84,North,-999,-999.0,-999.0,95,0.00,,,0.07,,2013-01-27 11:01:00,
2013-01-27 03:11:00,31.0,30.0,29.84,North,-999,-999.0,-999.0,95,0.00,,,0.07,,2013-01-27 11:11:00,
2013-01-27 03:21:00,31.0,30.0,29.84,North,-999,-999.0,-999.0,95,0.00,,,0.07,,2013-01-27 11:21:00,
2013-01-27 03:32:00,30.0,29.0,29.84,North,-999,-999.0,-999.0,95,0.00,,,0.06,,2013-01-27 11:32:00,
2013-01-27 03:42:00,30.0,29.0,29.84,North,-999,-999.0,-999.0,95,0.00,,,0.06,,2013-01-27 11:42:00,
2013-01-27 03:52:00,30.0,29.0,29.84,North,-999,-999.0,-999.0,95,0.00,,,0.06,,2013-01-27 11:52:00,
2013-01-27 04:02:00,30.0,29.0,29.84,North,-999,-999.0,-999.0,95,0.00,,,0.06,,2013-01-27 12:02:00,
2013-01-27 04:11:00,30.0,29.0,29.84,North,-999,-999.0,-999.0,95,0.00,,,0.06,,2013-01-27 12:11:00,
2013-01-27 04:21:00,30.0,29.0,29.84,North,-999,-999.0,-999.0,95,0.00,,,0.06,,2013-01-27 12:21:00,
2013-01-27 04:32:00,29.0,28.0,29.84,North,-999,-999.0,-999.0,95,0.00,,,0.06,,2013-01-27 12:32:00,
2013-01-27 04:41:00,29.0,28.0,29.84,North,-999,-999.0,-999.0,95,0.00,,,0.06,,2013-01-27 12:41:00,
2013-01-27 04:52:00,29.0,28.0,29.84,North,-999,-999.0,-999.0,95,0.00,,,0.06,,2013-01-27 12:52:00,
2013-01-27 05:01:00,29.0,28.0,29.84,North,-999,-999.0,-999.0,95,0.00,,,0.06,,2013-01-27 13:01:00,
2013-01-27 05:11:00,29.0,28.0,29.84,North,-999,-999.0,-999.0,95,0.00,,,0.06,,2013-01-27 13:11:00,
2013-01-27 05:22:00,29.0,28.0,29.84,North,-999,-999.0,-999.0,95,0.00,,,0.06,,2013-01-27 13:22:00,
2013-01-27 05:31:00,29.0,28.0,29.84,North,-999,-999.0,-999.0,95,0.00,,,0.06,,2013-01-27 13:31:00,
2013-01-27 05:41:00,29.0,28.0,29.84,North,-999,-999.0,-999.0,95,0.00,,,0.06,,2013-01-27 13:41:00,
2013-01-27 08:53:00,29.0,28.0,29.84,North,-999,-999.0,-999.0,95,0.00,,,0.05,,2013-01-27 16:53:00,
2013-01-27 09:01:00,29.0,28.0,29.84,North,-999,-999.0,-999.0,95,0.00,,,0.05,,2013-01-27 17:01:00,
2013-01-27 09:10:00,29.0,28.0,29.86,North,-999,-999.0,-999.0,95,0.00,,,0.04,,2013-01-27 17:10:00,
2013-01-27 09:11:00,29.0,28.0,29.84,North,-999,-999.0,-999.0,95,0.00,,,0.05,,2013-01-27 17:11:00,
2013-01-27 09:21:00,29.0,28.0,29.84,North,-999,-999.0,-999.0,95,0.00,,,0.05,,2013-01-27 17:21:00,
2013-01-27 09:31:00,29.0,28.0,29.86,North,-999,-999.0,-999.0,95,0.00,,,0.04,,2013-01-27 17:31:00,
2013-01-27 09:42:00,29.0,28.0,29.86,North,-999,-999.0,-999.0,95,0.00,,,0.04,,2013-01-27 17:42:00,
2013-01-27 09:52:00,29.0,28.0,29.86,North,-999,-999.0,-999.0,95,0.00,,,0.04,,2013-01-27 17:52:00,
2013-01-27 10:02:00,29.0,28.0,29.86,North,-999,-999.0,-999.0,95,0.00,,,0.04,,2013-01-27 18:02:00,
2013-01-27 10:32:00,30.0,29.0,29.87,North,-999,-999.0,-999.0,95,0.00,,,0.04,,2013-01-27 18:32:00,
2013-01-27 10:42:00,30.0,29.0,29.87,North,-999,-999.0,-999.0,95,0.00,,,0.04,,2013-01-27 18:42:00,
2013-01-27 10:52:00,30.0,29.0,29.87,North,-999,-999.0,-999.0,95,0.00,,,0.04,,2013-01-27 18:52:00,
2013-01-27 11:01:00,30.0,29.0,29.87,North,-999,-999.0,-999.0,95,0.00,,,0.04,,2013-01-27 19:01:00,
2013-01-27 11:11:00,30.0,29.0,29.87,North,-999,-999.0,-999.0,95,0.00,,,0.04,,2013-01-27 19:11:00,
2013-01-27 22:32:00,31.0,29.0,29.85,North,-999,-999.0,-999.0,93,0.00,,,0.01,,2013-01-28 06:32:00,
2013-01-27 22:42:00,31.0,29.0,29.85,North,-999,-999.0,-999.0,93,0.00,,,0.01,,2013-01-28 06:42:00,
2013-01-27 22:52:00,31.0,29.0,29.84,North,-999,-999.0,-999.0,93,0.00,,,0.01,,2013-01-28 06:52:00,
2013-01-27 23:02:00,31.0,29.0,29.84,North,-999,-999.0,-999.0,93,0.00,,,0.01,,2013-01-28 07:02:00,
2013-01-27 23:10:00,31.0,29.0,29.84,North,-999,-999.0,-999.0,93,0.00,,,0.01,,2013-01-28 07:10:00,
2013-01-27 23:11:00,31.0,29.0,29.84,North,-999,-999.0,-999.0,93,0.00,,,0.01,,2013-01-28 07:11:00,
2013-01-27 23:21:00,31.0,29.0,29.84,North,-999,-999.0,-999.0,93,0.00,,,0.01,,2013-01-28 07:21:00,
2013-01-27 23:31:00,31.0,29.0,29.84,North,-999,-999.0,-999.0,93,0.00,,,0.01,,2013-01-28 07:31:00,
2013-01-27 23:41:00,31.0,29.0,29.84,North,-999,-999.0,-999.0,93,0.00,,,0.01,,2013-01-28 07:41:00,
2013-01-27 23:51:00,31.0,29.0,29.84,North,-999,-999.0,-999.0,93,0.00,,,0.01,,2013-01-28 07:51:00,